This is the latest recevied weather packets stored in our database for station/object W4DHW-4. If no packets are shown the sender has not sent any weather packets the latest 10 day(s).
| Time | Temp. | Humidity | Pressure | Rain* | Wind** | Luminosity | Snow |
|---|---|---|---|---|---|---|---|
| 1778169603 | 12.78° C | 86% | 1012.3 hPa | 0 mm | - | 106 W/m² | - |
| 1778169299 | 12.78° C | 84% | 1012.5 hPa | 0 mm | - | 103 W/m² | - |
| 1778168996 | 12.78° C | 85% | 1012.7 hPa | 0 mm | - | 127 W/m² | - |
| 1778168693 | 12.78° C | 86% | 1012.7 hPa | 0 mm | - | 98 W/m² | - |
| 1778168390 | 12.78° C | 85% | 1012.7 hPa | 0 mm | - | 75 W/m² | - |
| 1778168087 | 12.78° C | 85% | 1012.7 hPa | 0 mm | - | 89 W/m² | - |
| 1778167783 | 12.78° C | 84% | 1012.7 hPa | 0 mm | - | 138 W/m² | - |
| 1778167479 | 12.78° C | 84% | 1012.5 hPa | 0 mm | - | 120 W/m² | - |
| 1778167175 | 12.78° C | 84% | 1012.6 hPa | 0 mm | - | 108 W/m² | - |
| 1778166872 | 12.78° C | 85% | 1012.6 hPa | 0 mm | - | 112 W/m² | - |
| 1778166569 | 12.78° C | 84% | 1012.3 hPa | 0 mm | - | 115 W/m² | - |
| 1778166266 | 12.78° C | 84% | 1012.6 hPa | 0 mm | - | 115 W/m² | - |
| 1778165962 | 12.78° C | 83% | 1012.4 hPa | 0 mm | - | 127 W/m² | - |
| 1778165658 | 12.78° C | 84% | 1012.1 hPa | 0 mm | - | 116 W/m² | - |
| 1778165355 | 12.78° C | 84% | 1012.7 hPa | 0 mm | - | 110 W/m² | - |
| 1778165052 | 13.33° C | 84% | 1012.8 hPa | 0 mm | - | 80 W/m² | - |
| 1778164749 | 13.33° C | 83% | 1012.6 hPa | 0 mm | - | 108 W/m² | - |
| 1778164446 | 13.33° C | 83% | 1012.9 hPa | 0 mm | - | 78 W/m² | - |
| 1778164143 | 13.33° C | 82% | 1012.4 hPa | 0 mm | - | 76 W/m² | - |
| 1778163838 | 13.33° C | 82% | 1012.5 hPa | 0 mm | - | 68 W/m² | - |
| 1778163536 | 13.33° C | 82% | 1012.6 hPa | 0 mm | - | 62 W/m² | - |
| 1778163232 | 13.33° C | 81% | 1012.3 hPa | 0 mm | - | 67 W/m² | - |
| 1778162929 | 13.33° C | 81% | 1012.5 hPa | 0 mm | - | 95 W/m² | - |
| 1778162625 | 13.89° C | 80% | 1012.7 hPa | 0 mm | - | 62 W/m² | - |
| 1778162323 | 13.89° C | 80% | 1012.7 hPa | 0 mm | - | 66 W/m² | - |
* Rain latest hour (hover to see other rain measurements)
** Current wind speed in m/s (hover to see current wind gust speed)